Regional Weather Roundup
Issued by NWS

Home | Current Version | Previous Version | Text Only | Print | Product List | Glossary Off
Versions: 1 2 3 4 5 6 7 8 9 10 11 12 13 14 15 16 17 18 19 20 21 22 23 24 25 26 27 28 29 30 31 32 33 34 35 36 37 38 39 40 41 42 43 44 45 46 47 48 49 50

096
ASUS45 KBOU 261610
RWRCO

WEATHER ROUNDUP FOR COLORADO
NATIONAL WEATHER SERVICE DENVER/BOULDER CO
1000 AM MDT MON SEP 26 2016

NOTE: "FAIR" INDICATES FEW OR NO CLOUDS BELOW 12000 FEET WITH NO
SIGNIFICANT WEATHER AND/OR OBSTRUCTIONS TO VISIBILITY.

COZ001>005-013-030-031-261700-
...NORTHWEST COLORADO...

CITY           SKY/WX    TMP DP  RH WIND       PRES   REMARKS
CRAIG          FAIR      48  37  65 CALM      30.51F
HAYDEN         FAIR      46  30  53 E10       30.51F
MEEKER         FAIR      48  34  58 CALM      30.53S
MOUNT WERNER   NOT AVBL
STEAMBOAT SPGS FAIR      46  33  62 SE5       30.53F
WALDEN           N/A     43  28  56 S3        30.58S
$$

COZ006>008-011-261700-
...WEST CENTRAL VALLEYS...

CITY           SKY/WX    TMP DP  RH WIND       PRES   REMARKS
GRAND JUNCTION FAIR      58  38  47 SE12      30.47R
MONTROSE       FAIR      53  36  52 NW3       30.51F
EAGLE          SUNNY     46  30  53 CALM      30.59S
RIFLE          FAIR      52  40  63 NW5       30.51S
DELTA          FAIR      55  38  53 CALM      30.51S
NUCLA          NOT AVBL
$$

COZ017>023-064>068-261700-
...SOUTHWEST COLORADO...

CITY           SKY/WX    TMP DP  RH WIND       PRES   REMARKS
DURANGO        FAIR      55  36  48 W7        30.50F
CORTEZ         FAIR      61  39  44 CALM      30.48S
PAGOSA SPRINGS FAIR      55  33  42 CALM      30.53F
TELLURIDE      FAIR      53  34  50 CALM      30.63S
WOLF CREEK PAS FAIR      43  30  61 NE7       30.76S
$$

COZ009-010-012-014-032>034-037-058>063-261700-
...CENTRAL COLORADO...

CITY           SKY/WX    TMP DP  RH WIND       PRES   REMARKS
ASPEN          FAIR      49  31  49 NW6       30.55R
BUENA VISTA    FAIR      50  27  41 CALM      30.58R
COPPER MTN     FAIR      50  19  29 CALM      30.73R
BERTHOUD PASS  FAIR      34  21  60 N9G18     30.75R WCI  26
COTTONWOOD PAS FAIR      50  27  40 E5        30.64R
GUNNISON       FAIR      45  28  53 CALM      30.61F
KREMMLING      FAIR      43  27  52 CALM      30.60F
LEADVILLE      FAIR      45  22  40 CALM      30.62F
MONARCH PASS   FAIR      41  28  60 SW13      30.84S
SALIDA         FAIR      49  30  47 CALM      30.64S
SUNLIGHT       FAIR      45  32  61 SW5       30.72R
WILKERSON PASS FAIR      46  18  31 CALM      30.74R
$$

COZ069>075-261700-
...SAN LUIS VALLEY/SANGRE DE CRISTO MOUNTAINS...

CITY           SKY/WX    TMP DP  RH WIND       PRES   REMARKS
ALAMOSA        FAIR      51  31  46 VRB3      30.56F
LA VETA PASS   FAIR      46  32  57 MISG      30.65S
SAGUACHE       NOT AVBL
$$

COZ035-036-038>040-261700-
...NORTHERN COLORADO FRONT RANGE...

CITY           SKY/WX    TMP DP  RH WIND       PRES   REMARKS
DENVER INTL AP FAIR      63  31  30 SW7       30.44R
DMNS CITY PARK   N/A     63  33  31 E7        30.44S
AURORA         SUNNY     62  32  32 VRB5      30.45S
FRONT RANGE AP SUNNY     66  32  28 S6        30.45S
ERIE MUNI ARPT FAIR      62  31  31 S3        30.42F
BOULDER MUN AP FAIR      61  32  33 SE3       30.42F
CENTENNIAL     FAIR      63  30  28 VRB3      30.46R
BROOMFIELD     SUNNY     63  28  27 CALM      30.45S
FORT COLLINS   FAIR      57  36  44 SE6       30.42S
LONGMONT       FAIR      64  35  34 S6        30.43F
$$

COZ041-046-047-076>085-087-088-261700-
...PIKES PEAK/PALMER DIVIDE AND SOUTHERN FOOTHILLS...

CITY           SKY/WX    TMP DP  RH WIND       PRES   REMARKS
COLO. SPRINGS  FAIR      62  32  32 CALM      30.47S
A. F. ACADEMY  FAIR      64  26  23 N9        30.47S
SCHRIEVER AFB  NOT AVBL
ELLICOTT       NOT AVBL
FALCON         FAIR      64  23  20 N12       30.50S
FORT CARSON    FAIR      60  31  34 NW2       30.45S
LIMON          FAIR      65  30  27 N13       30.44S
MONUMENT HILL  FAIR      59  28  31 N6        30.52S
TRINIDAD       FAIR      60  33  36 S5        30.45F
$$

COZ042>045-048>051-090-091-261700-
...NORTHEAST COLORADO...

CITY           SKY/WX    TMP DP  RH WIND       PRES   REMARKS
GREELEY ARPT   FAIR      57  37  47 SW3       30.43S
AKRON          FAIR      60  32  34 W10       30.40S
BURLINGTON     FAIR      65  34  31 SW16      30.40S
WRAY           NOT AVBL
STERLING       FAIR      55  36  47 S5        30.38S
HOLYOKE        FAIR      64  36  34 W9        30.36S
FORT MORGAN    FAIR      59  33  37 W9        30.41S
$$

COZ086-089-092>099-261700-
...SOUTHEAST COLORADO...

CITY           SKY/WX    TMP DP  RH WIND       PRES   REMARKS
PUEBLO         FAIR      59  33  37 S5        30.42F
LA JUNTA       FAIR      59  35  40 W7        30.41F
LAMAR          FAIR      61  36  39 NW5       30.39F
SPRINGFIELD    NOT AVBL
$$




USA.gov is the U.S. government's official web portal to all federal, state and local government web resources and services.